Retour au catalogue

STARLINK-35236

ActifCommunicationsVLEO
NORAD 66008·PAYLOAD·🇺🇸 United States

Lancé Oct 16, 2025 depuis Cape Canaveral Space Force Station

Loading…

Prochains Passages (prochaines 24 heures)

TLE

FraisSource: CelesTrak SupGP

Époque: Sep 14, 2026, 21:06 UTC

1 66008C 25232D   26257.87965278  .00008232  00000+0  24331-3 0  2575
2 66008  53.1590 301.9045 0001261  81.1776  40.7903 15.34372177    11

Suivez STARLINK-35236 en temps réel avec AllMySat

Download on the App Store